Retour au catalogue

STARLINK-30835

ActifCommunicationsVLEO
NORAD 58219·PAYLOAD·🇺🇸 United States

Lancé Nov 3, 2023 depuis Cape Canaveral Space Force Station

Loading…

Prochains Passages (prochaines 24 heures)

TLE

FraisSource: CelesTrak SupGP

Époque: Sep 15, 2026, 03:19 UTC

1 58219C 23170P   26258.13868056 -.00037351  00000+0 -13531-2 0  2581
2 58219  42.9996 204.3225 0001271 271.2435  70.9798 15.27591408    12

Suivez STARLINK-30835 en temps réel avec AllMySat

Download on the App Store